Time,TemperatureF,DewpointF,PressureIn,WindDirection,WindDirectionDegrees,WindSpeedMPH,WindSpeedGustMPH,Humidity,HourlyPrecipIn,Conditions,Clouds,dailyrainin,SoftwareType,DateUTC
2013-05-17 00:00:00,48.0,39.8,29.88,NNW,344,0.0,11.0,73,0.00,,,0.00,Wunderground v.1.13,2013-05-17 04:00:00,
2013-05-17 00:30:00,48.2,39.6,29.90,NNW,343,0.0,11.0,72,0.00,,,0.00,Wunderground v.1.13,2013-05-17 04:30:00,
2013-05-17 01:00:00,47.7,39.1,29.91,NNW,343,0.0,11.0,72,0.00,,,0.00,Wunderground v.1.13,2013-05-17 05:00:00,
2013-05-17 01:30:00,47.4,39.2,29.91,NNW,343,0.0,11.0,73,0.00,,,0.00,Wunderground v.1.13,2013-05-17 05:30:00,
2013-05-17 02:00:00,46.7,38.9,29.92,NNW,343,0.0,11.0,74,0.00,,,0.00,Wunderground v.1.13,2013-05-17 06:00:00,
2013-05-17 02:30:00,46.2,39.4,29.92,NNW,343,0.0,11.0,77,0.00,,,0.00,Wunderground v.1.13,2013-05-17 06:30:00,
2013-05-17 03:00:00,46.0,39.2,29.93,NNW,343,0.0,11.0,77,0.00,,,0.00,Wunderground v.1.13,2013-05-17 07:00:00,
2013-05-17 03:30:00,46.1,39.3,29.94,NNW,343,0.0,11.0,77,0.00,,,0.00,Wunderground v.1.13,2013-05-17 07:30:00,
2013-05-17 04:00:00,45.7,39.6,29.94,NNW,343,0.0,11.0,79,0.00,,,0.00,Wunderground v.1.13,2013-05-17 08:00:00,
2013-05-17 04:30:00,45.2,39.4,29.95,NNW,343,0.0,11.0,80,0.00,,,0.00,Wunderground v.1.13,2013-05-17 08:30:00,
2013-05-17 05:00:00,44.5,39.3,29.96,NNW,343,0.0,11.0,82,0.00,,,0.00,Wunderground v.1.13,2013-05-17 09:00:00,
2013-05-17 07:30:00,49.9,42.6,30.02,NW,321,2.0,2.0,76,0.00,,,0.00,Wunderground v.1.13,2013-05-17 11:30:00,
2013-05-17 08:00:00,52.5,43.0,30.04,NW,321,1.0,1.0,70,0.00,,,0.00,Wunderground v.1.13,2013-05-17 12:00:00,
2013-05-17 08:30:00,53.8,43.5,30.04,NW,321,1.0,5.0,68,0.00,,,0.00,Wunderground v.1.13,2013-05-17 12:30:00,
2013-05-17 09:00:00,54.4,43.3,30.05,NW,323,1.0,5.0,66,0.00,,,0.00,Wunderground v.1.13,2013-05-17 13:00:00,
2013-05-17 09:30:00,55.9,43.5,30.05,NW,311,1.0,5.0,63,0.00,,,0.00,Wunderground v.1.13,2013-05-17 13:30:00,
2013-05-17 10:00:00,57.0,43.7,30.07,WNW,284,1.0,1.0,61,0.00,,,0.00,Wunderground v.1.13,2013-05-17 14:00:00,
2013-05-17 10:30:00,58.4,43.2,30.07,West,269,1.0,1.0,57,0.00,,,0.00,Wunderground v.1.13,2013-05-17 14:30:00,
2013-05-17 11:00:00,59.2,43.5,30.07,SW,229,1.0,1.0,56,0.00,,,0.00,Wunderground v.1.13,2013-05-17 15:00:00,
2013-05-17 11:30:00,60.9,43.6,30.07,West,272,1.0,5.0,53,0.00,,,0.00,Wunderground v.1.13,2013-05-17 15:30:00,
2013-05-17 12:00:00,62.6,42.1,30.07,WNW,290,2.0,5.0,47,0.00,,,0.00,Wunderground v.1.13,2013-05-17 16:00:00,
2013-05-17 12:30:00,62.4,41.3,30.07,SSW,196,2.0,5.0,46,0.00,,,0.00,Wunderground v.1.13,2013-05-17 16:30:00,
2013-05-17 13:00:00,64.3,40.1,30.06,West,277,2.0,2.0,41,0.00,,,0.00,Wunderground v.1.13,2013-05-17 17:00:00,
2013-05-17 13:30:00,65.8,38.1,30.06,SW,223,2.0,2.0,36,0.00,,,0.00,Wunderground v.1.13,2013-05-17 17:30:00,
2013-05-17 14:00:00,66.8,33.5,30.05,WSW,244,3.0,5.0,29,0.00,,,0.00,Wunderground v.1.13,2013-05-17 18:00:00,
2013-05-17 14:30:00,68.1,33.7,30.05,WSW,238,3.0,3.0,28,0.00,,,0.00,Wunderground v.1.13,2013-05-17 18:30:00,
2013-05-17 15:00:00,69.1,29.7,30.05,West,265,2.0,5.0,23,0.00,,,0.00,Wunderground v.1.13,2013-05-17 19:00:00,
2013-05-17 15:30:00,69.4,27.7,30.05,West,273,2.0,2.0,21,0.00,,,0.00,Wunderground v.1.13,2013-05-17 19:30:00,
2013-05-17 16:00:00,68.4,29.1,30.05,NNW,340,2.0,2.0,23,0.00,,,0.00,Wunderground v.1.13,2013-05-17 20:00:00,
2013-05-17 16:30:00,69.6,26.7,30.05,WNW,284,3.0,5.0,20,0.00,,,0.00,Wunderground v.1.13,2013-05-17 20:30:00,
2013-05-17 17:00:00,67.6,29.5,30.05,NNW,344,1.0,1.0,24,0.00,,,0.00,Wunderground v.1.13,2013-05-17 21:00:00,
2013-05-17 17:30:00,68.6,34.2,30.05,NNE,19,3.0,5.0,28,0.00,,,0.00,Wunderground v.1.13,2013-05-17 21:30:00,
2013-05-17 18:00:00,68.4,33.1,30.06,West,267,1.0,1.0,27,0.00,,,0.00,Wunderground v.1.13,2013-05-17 22:00:00,
2013-05-17 18:30:00,69.6,31.2,30.06,West,266,1.0,5.0,24,0.00,,,0.00,Wunderground v.1.13,2013-05-17 22:30:00,
2013-05-17 19:00:00,68.8,33.4,30.07,WNW,300,0.0,5.0,27,0.00,,,0.00,Wunderground v.1.13,2013-05-17 23:00:00,
2013-05-17 19:30:00,67.6,33.3,30.07,WNW,283,1.0,5.0,28,0.00,,,0.00,Wunderground v.1.13,2013-05-17 23:30:00,
2013-05-17 20:00:00,66.0,31.9,30.07,WNW,283,0.0,5.0,28,0.00,,,0.00,Wunderground v.1.13,2013-05-18 00:00:00,
2013-05-17 20:30:00,63.4,37.3,30.08,WNW,283,0.0,5.0,38,0.00,,,0.00,Wunderground v.1.13,2013-05-18 00:30:00,
2013-05-17 21:00:00,60.7,40.9,30.09,WNW,283,0.0,5.0,48,0.00,,,0.00,Wunderground v.1.13,2013-05-18 01:00:00,
2013-05-17 21:30:00,57.2,43.9,30.10,WNW,283,0.0,5.0,61,0.00,,,0.00,Wunderground v.1.13,2013-05-18 01:30:00,
2013-05-17 22:00:00,58.9,41.8,30.11,West,266,1.0,1.0,53,0.00,,,0.00,Wunderground v.1.13,2013-05-18 02:00:00,
2013-05-17 22:30:00,56.6,42.9,30.12,WSW,250,1.0,1.0,60,0.00,,,0.00,Wunderground v.1.13,2013-05-18 02:30:00,
2013-05-17 23:00:00,53.8,43.1,30.13,WSW,250,0.0,5.0,67,0.00,,,0.00,Wunderground v.1.13,2013-05-18 03:00:00,
2013-05-17 23:30:00,52.0,42.9,30.13,WSW,250,0.0,5.0,71,0.00,,,0.00,Wunderground v.1.13,2013-05-18 03:30:00,